sat.trackr.live / text

‹ back to catalog

STARLINK-34025

NORAD 63824 · 2025-092W

PAYLOAD ACTIVE UNKNOWN

§ Identity

Operator
Country
US
Launch date
2025-05-04
Launch site
AFETR
Launch vehicle
Mass (kg)
RCS (m²)

Purposes: comms

External: N2YO · Heavens-Above · Gunter

§ Orbital elements

Epoch: 2026-05-25T03:47:41.428032Z

Period
94.26 min
Inclination
42.9997°
Eccentricity
0.0000777
Mean motion
15.27612724 rev/d
Perigee alt
482.4 km
Apogee alt
483.5 km
Semi-major
6,861.1 km
B*
7.5985e-4
RAAN
100.3305°
Arg perigee
249.7024°
Mean anomaly
110.3744°
Rev number
6,025

§ Raw data

STARLINK-340251 63824U 25092W   26145.15811838  .00020727  00000+0  75985-3 0  99982 63824  42.9997 100.3305 0000777 249.7024 110.3744 15.27612724 60256

JSON: /api/v1/satellites/63824 · /tle

For live sub-satellite position, see the globe view (requires WebGL).

§ Visibility from observer

Set your observer location to see the next 7 days of passes ≥ 10°. The values pass through the URL so the page stays shareable.

No JS? Fill the form by hand. The geolocation button needs JavaScript.